Stations météo

réclame
Mon MeteoGroup
Floda, Suède (2476): Température de l'air & dewpoint: 18.05.2019 05:00:00 - 24.05.2019 05:00:00 (CEST)Floda, Suède (2476): Vitesse du vent & gusts: 18.05.2019 05:00:00 - 24.05.2019 05:00:00 (CEST)Floda, Suède (2476): Direction du vent: 18.05.2019 05:00:00 - 24.05.2019 05:00:00 (CEST)Floda, Suède (2476): reduced air pressure: 18.05.2019 05:00:00 - 24.05.2019 05:00:00 (CEST)Floda, Suède (2476): visibility: 18.05.2019 05:00:00 - 24.05.2019 05:00:00 (CEST)Floda, Suède (2476): Quantités de précipitations: 18.05.2019 05:00:00 - 24.05.2019 05:00:00 (CEST)
Date & Time tt [°C] td [°C] ff [km/h] ff [knt] fx [km/h] fx [knt] dd ppp [hPa] vv [km] rr [mm]
24.05.2019 05:00:00 5,1 1,8 0 0 4 2 N 1009,9 3,9 0,0
24.05.2019 04:00:00 6,0 3,7 0 0 6 3 N 1010,4 21 0,0
24.05.2019 03:00:00 6,5 4,2 3 2 5 3 SE 1010,8 22 0,0
24.05.2019 02:00:00 6,9 4,0 0 0 4 2 N 1011,2 36 0,0
24.05.2019 01:00:00 7,0 4,7 0 0 2 1 N 1011,5 36 0,0
24.05.2019 00:00:00 7,5 4,6 0 0 1 1 N 1011,8 45 0,0
23.05.2019 23:00:00 8,7 5,6 0 0 6 3 N 1012,1 50 0,0
23.05.2019 22:00:00 10,3 5,7 0 0 3 2 N 1011,9 50 0,0
23.05.2019 21:00:00 13,6 5,2 0 0 13 7 N 1011,9 50 0,0
23.05.2019 20:00:00 14,5 4,8 10 6 31 17 W 1011,9 47 0,0
23.05.2019 19:00:00 16,6 6,1 15 8 31 17 W 1011,7 50 0,0
23.05.2019 18:00:00 17,3 6,5 19 10 29 16 W 1011,8 30 0,0
23.05.2019 17:00:00 18,0 7,4 17 9 29 16 W 1011,7 40 0,0
23.05.2019 16:00:00 18,3 7,4 16 9 27 15 W 1011,8 27 0,0
23.05.2019 15:00:00 17,6 8,2 15 8 27 15 W 1012,2 30 0,0
23.05.2019 14:00:00 15,9 8,4 16 8 28 15 WNW 1012,6 35 0,0
23.05.2019 13:00:00 14,6 8,8 14 7 26 14 W 1012,6 37 0,0
23.05.2019 12:00:00 12,5 9,3 9 5 22 12 W 1012,5 29 0,0
23.05.2019 11:00:00 11,4 8,3 9 5 20 11 W 1012,3 24 0,1
23.05.2019 10:00:00 10,6 7,8 11 6 23 13 W 1012,3 26 1,0
23.05.2019 09:00:00 10,6 8,0 10 6 26 14 W 1012,1 13 0,7
23.05.2019 08:00:00 10,8 8,4 12 7 27 14 WNW 1011,7 24 2,8
23.05.2019 07:00:00 10,7 8,6 14 7 27 15 W 1011,5 5 -
23.05.2019 06:00:00 11,9 8,9 16 8 27 14 W 1011,3 20 0,3
23.05.2019 05:00:00 12,9 10,8 19 11 30 16 WNW 1010,6 8 0,0
23.05.2019 04:00:00 14,4 12,1 9 5 16 9 WNW 1010,5 10 0,0
23.05.2019 03:00:00 13,2 10,2 0 0 5 3 N 1010,5 11 0,0
23.05.2019 02:00:00 12,8 9,8 0 0 8 4 N 1010,1 6 0,0
23.05.2019 01:00:00 13,9 11,8 4 2 8 4 E 1010,0 11 0,0
23.05.2019 00:00:00 16,0 12,2 4 2 8 4 ESE 1010,1 29 0,0
22.05.2019 23:00:00 16,0 12,6 3 2 12 7 SE 1010,7 31 0,0
22.05.2019 22:00:00 17,8 11,6 10 5 16 9 WSW 1011,0 23 0,1
22.05.2019 21:00:00 19,0 10,8 9 5 23 12 SSE 1010,4 34 0,0
22.05.2019 20:00:00 21,1 10,6 14 8 24 13 SSE 1009,0 19 0,0
22.05.2019 19:00:00 24,4 13,6 7 4 22 12 SSE 1008,3 24 0,0
22.05.2019 18:00:00 25,6 11,7 10 5 23 12 ENE 1008,0 30 0,0
22.05.2019 17:00:00 25,0 12,6 7 4 21 11 ESE 1008,4 30 0,0
22.05.2019 16:00:00 25,7 12,2 10 5 18 10 ENE 1009,0 35 0,0
22.05.2019 15:00:00 25,7 12,5 5 3 16 8 ENE 1009,4 32 0,0
22.05.2019 14:00:00 24,8 12,1 8 4 17 9 NE 1009,8 30 0,0
22.05.2019 13:00:00 24,0 12,0 5 3 16 9 ENE 1010,2 36 0,0
22.05.2019 12:00:00 22,9 12,8 6 4 14 8 NE 1010,3 35 0,0
22.05.2019 11:00:00 21,7 12,8 9 5 16 9 E 1010,5 23 0,0
22.05.2019 10:00:00 20,3 12,5 8 4 13 7 E 1010,5 36 0,0
22.05.2019 09:00:00 18,9 11,9 4 2 16 8 NE 1010,4 35 0,0
22.05.2019 08:00:00 17,0 11,9 11 6 17 9 ENE 1010,3 25 0,0
22.05.2019 07:00:00 15,1 11,3 6 4 12 6 NNE 1010,3 23 0,0
22.05.2019 06:00:00 13,7 9,9 2 1 9 5 ENE 1010,4 18 0,0
22.05.2019 05:00:00 11,7 8,5 2 1 5 3 ENE 1010,2 11 0,0
22.05.2019 04:00:00 11,3 8,7 0 0 6 4 N 1010,3 - 0,0
22.05.2019 03:00:00 11,0 8,7 0 0 5 3 N 1010,4 9 0,0
22.05.2019 02:00:00 11,0 8,6 0 0 4 2 N 1010,5 5 0,0
22.05.2019 01:00:00 12,3 8,9 0 0 4 2 N 1010,9 13 0,0
22.05.2019 00:00:00 13,5 10,1 0 0 5 3 N 1011,0 21 0,0
21.05.2019 23:00:00 14,9 11,1 3 2 5 3 SE 1010,8 32 0,0
21.05.2019 22:00:00 17,3 12,0 3 2 6 4 ESE 1010,5 33 0,0
21.05.2019 21:00:00 18,9 11,9 4 2 11 6 SE 1010,2 43 0,0
21.05.2019 20:00:00 20,7 13,2 6 3 18 10 S 1009,8 32 0,0
21.05.2019 19:00:00 22,8 13,8 11 6 17 9 ESE 1009,6 33 0,0
21.05.2019 18:00:00 23,4 14,1 8 4 16 9 SE 1009,5 34 0,0
21.05.2019 17:00:00 23,8 13,9 11 6 19 10 SE 1009,7 27 0,0
21.05.2019 16:00:00 23,4 12,7 3 2 14 8 E 1010,0 31 0,0
21.05.2019 15:00:00 22,0 12,5 4 2 15 8 E 1010,4 28 0,0
21.05.2019 14:00:00 22,1 12,4 8 5 18 10 E 1010,1 28 0,0
21.05.2019 13:00:00 23,0 13,2 7 4 23 12 E 1010,0 31 0,0
21.05.2019 12:00:00 22,8 12,7 11 6 21 12 ENE 1009,9 29 0,0
21.05.2019 11:00:00 21,7 12,8 11 6 18 10 NE 1010,1 28 0,0
21.05.2019 10:00:00 19,9 12,2 8 4 14 8 NE 1010,2 29 0,0
21.05.2019 09:00:00 18,3 12,3 5 3 18 10 NE 1010,2 33 0,0
21.05.2019 08:00:00 17,5 11,3 5 3 18 10 ENE 1010,2 32 0,0
21.05.2019 07:00:00 15,2 11,2 6 3 15 8 ENE 1010,2 27 0,0
21.05.2019 06:00:00 14,4 10,6 8 4 13 7 NNE 1009,7 25 0,0
21.05.2019 05:00:00 12,8 9,4 2 1 10 5 SE 1009,9 23 0,0
21.05.2019 04:00:00 12,8 9,1 3 2 11 6 NNW 1009,7 25 0,0
21.05.2019 03:00:00 13,7 10,7 5 3 10 5 NNE 1010,1 20 0,0
21.05.2019 02:00:00 11,9 9,5 0 0 5 3 N 1010,3 7 0,0
21.05.2019 01:00:00 11,8 8,8 0 0 3 2 N 1010,7 4,9 0,0
21.05.2019 00:00:00 12,4 8,9 0 0 5 3 N 1010,8 9 0,0
20.05.2019 23:00:00 14,9 11,5 0 0 9 5 N 1010,6 26 0,0
20.05.2019 22:00:00 15,8 12,2 5 3 9 5 E 1010,6 33 0,0
20.05.2019 21:00:00 18,5 12,7 6 3 17 9 ESE 1010,7 40 0,0
20.05.2019 20:00:00 20,2 13,6 10 5 19 11 SE 1009,8 43 0,0
20.05.2019 19:00:00 21,4 14,1 11 6 21 11 SE 1009,7 40 0,0
20.05.2019 18:00:00 22,1 14,0 13 7 22 12 SE 1009,8 34 0,0
20.05.2019 17:00:00 22,7 14,3 10 6 24 13 ESE 1009,9 35 0,0
20.05.2019 16:00:00 22,6 13,6 12 7 23 13 SE 1010,2 31 0,0
20.05.2019 15:00:00 22,6 13,4 9 5 22 12 SSE 1010,3 31 0,0
20.05.2019 14:00:00 21,8 13,2 13 7 24 13 SE 1010,4 29 0,0
20.05.2019 13:00:00 22,0 12,8 12 7 25 14 ESE 1010,0 29 0,0
20.05.2019 12:00:00 21,3 12,7 15 8 27 15 ESE 1010,2 32 0,0
20.05.2019 11:00:00 21,0 12,2 10 5 23 12 ESE 1010,2 25 0,0
20.05.2019 10:00:00 19,0 11,1 11 6 22 12 E 1010,3 34 0,0
20.05.2019 09:00:00 17,4 10,8 8 5 24 13 E 1010,5 35 0,0
20.05.2019 08:00:00 15,9 10,4 9 5 20 11 ENE 1010,3 32 0,0
20.05.2019 07:00:00 14,3 10,1 7 4 13 7 NE 1010,5 27 0,0
20.05.2019 06:00:00 13,9 10,3 3 2 19 10 N 1010,8 22 0,0
20.05.2019 05:00:00 13,9 11,1 5 3 18 10 NE 1011,2 16 0,0
20.05.2019 04:00:00 14,0 11,3 8 4 13 7 NE 1011,5 17 0,0
20.05.2019 03:00:00 14,3 11,3 6 4 16 8 NNE 1011,8 22 0,0
20.05.2019 02:00:00 13,9 11,1 4 2 6 3 N 1012,3 15 0,0
20.05.2019 01:00:00 14,4 11,5 2 1 6 3 ENE 1012,8 14 0,0
20.05.2019 00:00:00 13,7 11,0 0 0 6 3 N 1013,2 4,8 0,0
19.05.2019 23:00:00 15,6 12,7 4 2 6 3 ENE 1013,2 19 0,0
19.05.2019 22:00:00 16,6 13,1 4 2 8 5 ENE 1013,2 28 0,0
19.05.2019 21:00:00 17,7 13,4 4 2 9 5 SE 1013,2 31 0,0
19.05.2019 20:00:00 18,4 12,4 2 1 9 5 ESE 1013,0 35 0,0
19.05.2019 19:00:00 19,2 12,2 4 2 13 7 ESE 1013,0 42 0,0
19.05.2019 18:00:00 19,7 12,5 9 5 15 8 ESE 1013,2 39 0,0
19.05.2019 17:00:00 19,8 13,3 6 3 14 8 S 1013,6 33 0,0
19.05.2019 16:00:00 20,2 12,4 4 2 9 5 WSW 1013,7 27 0,0
19.05.2019 15:00:00 18,0 11,8 3 2 8 5 WNW 1014,0 37 0,0
19.05.2019 14:00:00 16,7 11,2 2 1 8 4 NNE 1014,3 31 0,0
19.05.2019 13:00:00 15,8 10,8 2 1 8 5 W 1014,2 33 0,0
19.05.2019 12:00:00 14,8 10,8 4 2 10 5 SW 1014,0 27 0,0
19.05.2019 11:00:00 14,0 10,8 3 2 8 4 E 1014,1 20 0,0
19.05.2019 10:00:00 13,3 9,9 3 2 6 4 W 1013,9 18 0,0
19.05.2019 09:00:00 12,6 9,8 3 2 8 5 W 1013,6 12 0,0
19.05.2019 08:00:00 11,9 9,8 3 1 9 5 SSE 1013,2 1,2 0,0
19.05.2019 07:00:00 11,2 9,8 4 2 10 5 E 1013,3 0,7 0,0
19.05.2019 06:00:00 11,0 8,9 4 2 9 5 SE 1013,1 2,9 0,0
19.05.2019 05:00:00 10,9 8,8 4 2 8 4 E 1013,3 14 0,0
19.05.2019 04:00:00 10,8 8,6 3 2 7 4 E 1013,3 14 0,0
19.05.2019 03:00:00 10,7 7,4 0 0 6 3 N 1013,4 14 0,0
19.05.2019 02:00:00 10,9 8,1 2 1 13 7 E 1013,2 23 0,0
19.05.2019 01:00:00 11,8 9,2 6 3 19 10 E 1013,2 35 0,5
19.05.2019 00:00:00 12,4 10,5 12 6 17 9 N 1012,9 14 3,0
18.05.2019 23:00:00 12,2 10,3 5 3 14 7 N 1014,2 7 2,6
18.05.2019 22:00:00 12,3 10,5 8 5 29 15 ESE 1015,4 2,3 -
18.05.2019 21:00:00 16,9 7,5 8 4 21 11 E 1014,4 29 0,0
18.05.2019 20:00:00 18,1 7,5 12 7 21 11 E 1014,4 49 0,0
18.05.2019 19:00:00 18,7 8,1 9 5 24 13 ESE 1014,7 33 0,0
18.05.2019 18:00:00 18,5 7,6 13 7 25 14 E 1015,2 47 0,0
18.05.2019 17:00:00 19,6 8,9 12 6 21 11 E 1015,5 46 0,0
18.05.2019 16:00:00 19,0 8,9 11 6 29 16 SE 1016,1 35 0,0
18.05.2019 15:00:00 19,0 9,2 16 8 24 13 SE 1016,4 34 0,0
18.05.2019 14:00:00 19,5 8,5 13 7 31 17 E 1016,5 32 0,0
18.05.2019 13:00:00 20,0 8,0 13 7 27 15 E 1016,6 36 0,0
18.05.2019 12:00:00 18,9 6,7 18 10 29 16 ENE 1016,6 40 0,0
18.05.2019 11:00:00 19,0 5,8 17 9 32 17 ENE 1016,9 37 0,0
18.05.2019 10:00:00 18,4 5,6 13 7 26 14 E 1017,1 33 0,0
18.05.2019 09:00:00 16,8 5,4 11 6 21 11 ENE 1017,5 38 0,0
18.05.2019 08:00:00 14,0 4,6 12 6 19 10 ENE 1017,5 34 0,0
18.05.2019 07:00:00 12,3 3,8 9 5 20 11 ENE 1017,7 48 0,0
18.05.2019 06:00:00 11,8 3,3 12 7 22 12 ENE 1018,0 50 0,0
18.05.2019 05:00:00 10,7 2,5 10 6 17 9 ENE 1018,2 50 0,0

tt = Température de l'air
td = dewpoint
ff = Vitesse du vent
fx = gusts
dd = Direction du vent
ppp = reduced air pressure
vv = visibility
rr = Quantités de précipitations

stations d'obs. à proximité